• In Latvia
  • List of Countries
  • For 7 days
  • Water Temperature
  • Satellite Maps
  • Weather Map
  • Weather Widgets
  • user-avatar
    Login

    Hourly Weather Crete

    Today, 20 June, Wednesday

    Time Temperature Precipitation Wind Pressure Humidity
    00:00 +21°C° 0 mm 2 mps 707 mmHg 75%
    01:00 +20°C° 0 mm 2 mps 707 mmHg 75%
    02:00 +20°C° 0 mm 2 mps 707 mmHg 75%
    03:00 +20°C° 0 mm 3 mps 707 mmHg 76%
    04:00 +20°C° 0 mm 3 mps 707 mmHg 77%
    05:00 +19°C° 0 mm 3 mps 707 mmHg 77%
    06:00 +20°C° 0 mm 3 mps 708 mmHg 72%
    07:00 +21°C° 0 mm 2 mps 708 mmHg 68%
    08:00 +24°C° 0 mm 2 mps 708 mmHg 63%
    09:00 +24°C° 0 mm 3 mps 708 mmHg 60%
    10:00 +25°C° 0 mm 3 mps 709 mmHg 57%
    11:00 +25°C° 0 mm 3 mps 709 mmHg 55%
    12:00 +26°C° 0.1 mm 3 mps 709 mmHg 54%
    13:00 +26°C° 0.1 mm 3 mps 709 mmHg 54%
    14:00 +26°C° 0.1 mm 4 mps 710 mmHg 53%
    15:00 +26°C° 0.1 mm 3 mps 709 mmHg 55%
    16:00 +26°C° 0.1 mm 3 mps 709 mmHg 56%
    17:00 +26°C° 0.1 mm 3 mps 709 mmHg 58%
    18:00 +25°C° 0.1 mm 3 mps 709 mmHg 61%
    19:00 +24°C° 0.1 mm 3 mps 709 mmHg 64%
    20:00 +22°C° 0.1 mm 3 mps 709 mmHg 67%
    21:00 +22°C° 0 mm 3 mps 709 mmHg 69%
    22:00 +23°C° 0 mm 2 mps 709 mmHg 72%
    23:00 +21°C° 0 mm 2 mps 710 mmHg 74%

    Tomorrow, 21 June, Thursday

    Time Temperature Precipitation Wind Pressure Humidity
    00:00 +21°C° 0 mm 2 mps 709 mmHg 75%
    01:00 +20°C° 0 mm 3 mps 709 mmHg 76%
    02:00 +20°C° 0 mm 3 mps 709 mmHg 77%
    03:00 +20°C° 0 mm 3 mps 709 mmHg 76%
    04:00 +20°C° 0 mm 3 mps 709 mmHg 76%
    05:00 +19°C° 0 mm 3 mps 709 mmHg 75%
    06:00 +20°C° 0 mm 3 mps 709 mmHg 71%
    07:00 +21°C° 0 mm 2 mps 709 mmHg 66%
    08:00 +23°C° 0 mm 2 mps 709 mmHg 62%
    09:00 +24°C° 0 mm 3 mps 709 mmHg 59%
    10:00 +25°C° 0 mm 3 mps 710 mmHg 55%
    11:00 +26°C° 0 mm 3 mps 710 mmHg 52%
    12:00 +26°C° 0 mm 4 mps 710 mmHg 52%
    13:00 +26°C° 0 mm 4 mps 710 mmHg 52%
    14:00 +26°C° 0 mm 5 mps 709 mmHg 51%
    15:00 +26°C° 0 mm 4 mps 709 mmHg 52%
    16:00 +26°C° 0 mm 4 mps 709 mmHg 53%
    17:00 +26°C° 0 mm 3 mps 709 mmHg 53%
    18:00 +25°C° 0 mm 3 mps 709 mmHg 55%
    19:00 +25°C° 0 mm 3 mps 709 mmHg 57%
    20:00 +24°C° 0 mm 3 mps 709 mmHg 59%
    21:00 +24°C° 0 mm 3 mps 709 mmHg 59%
    22:00 +23°C° 0 mm 2 mps 709 mmHg 59%
    23:00 +23°C° 0 mm 2 mps 709 mmHg 59%

    Day after tomorrow, 22 June, Friday

    Time Temperature Precipitation Wind Pressure Humidity
    00:00 +21°C° 0 mm 2 mps 709 mmHg 58%
    01:00 +21°C° 0 mm 2 mps 709 mmHg 58%
    02:00 +21°C° 0 mm 2 mps 708 mmHg 58%
    03:00 +20°C° 0 mm 2 mps 708 mmHg 57%
    04:00 +20°C° 0 mm 2 mps 708 mmHg 57%
    05:00 +20°C° 0 mm 2 mps 708 mmHg 56%
    06:00 +21°C° 0 mm 2 mps 708 mmHg 53%
    07:00 +23°C° 0 mm 2 mps 708 mmHg 50%
    08:00 +24°C° 0 mm 2 mps 709 mmHg 46%
    09:00 +25°C° 0 mm 3 mps 709 mmHg 45%
    10:00 +26°C° 0 mm 4 mps 709 mmHg 44%
    11:00 +27°C° 0 mm 4 mps 709 mmHg 43%
    12:00 +27°C° 0 mm 5 mps 709 mmHg 44%
    13:00 +27°C° 0 mm 5 mps 709 mmHg 45%
    14:00 +27°C° 0 mm 6 mps 708 mmHg 46%
    15:00 +27°C° 0 mm 6 mps 708 mmHg 49%
    16:00 +27°C° 0 mm 7 mps 708 mmHg 52%
    17:00 +26°C° 0 mm 7 mps 708 mmHg 55%
    18:00 +24°C° 0 mm 7 mps 708 mmHg 60%
    19:00 +23°C° 0 mm 6 mps 708 mmHg 65%
    20:00 +22°C° 0 mm 6 mps 708 mmHg 71%
    21:00 +22°C° 0 mm 5 mps 708 mmHg 73%
    22:00 +21°C° 0 mm 4 mps 708 mmHg 76%
    23:00 +21°C° 0 mm 4 mps 708 mmHg 79%

    23 June, Saturday

    Time Temperature Precipitation Wind Pressure Humidity
    00:00 +21°C° 0 mm 4 mps 707 mmHg 80%
    01:00 +20°C° 0 mm 3 mps 707 mmHg 82%
    02:00 +20°C° 0 mm 3 mps 707 mmHg 83%
    03:00 +20°C° 0 mm 3 mps 707 mmHg 83%
    04:00 +19°C° 0 mm 4 mps 706 mmHg 84%
    05:00 +19°C° 0 mm 4 mps 706 mmHg 84%
    06:00 +20°C° 0 mm 4 mps 707 mmHg 79%
    07:00 +21°C° 0 mm 4 mps 707 mmHg 73%
    08:00 +22°C° 0 mm 4 mps 707 mmHg 68%
    09:00 +23°C° 0 mm 5 mps 708 mmHg 63%
    10:00 +24°C° 0 mm 6 mps 708 mmHg 58%
    11:00 +27°C° 0 mm 6 mps 708 mmHg 54%
    12:00 +27°C° 0 mm 6 mps 708 mmHg 53%
    13:00 +27°C° 0 mm 7 mps 708 mmHg 52%
    14:00 +28°C° 0 mm 7 mps 708 mmHg 52%
    15:00 +28°C° 0.1 mm 6 mps 708 mmHg 53%
    16:00 +27°C° 0.1 mm 6 mps 708 mmHg 55%
    17:00 +27°C° 0.1 mm 6 mps 707 mmHg 56%
    18:00 +26°C° 0 mm 5 mps 707 mmHg 60%
    19:00 +25°C° 0 mm 5 mps 707 mmHg 64%
    20:00 +23°C° 0 mm 4 mps 707 mmHg 68%
    21:00 +23°C° 0 mm 4 mps 707 mmHg 70%
    22:00 +22°C° 0 mm 4 mps 708 mmHg 73%
    23:00 +21°C° 0 mm 4 mps 708 mmHg 75%

    24 June, Sunday

    Time Temperature Precipitation Wind Pressure Humidity
    00:00 +21°C° 0 mm 4 mps 707 mmHg 75%
    01:00 +21°C° 0 mm 4 mps 707 mmHg 74%
    02:00 +21°C° 0 mm 4 mps 707 mmHg 74%
    03:00 +20°C° 0 mm 4 mps 707 mmHg 73%
    04:00 +20°C° 0 mm 4 mps 707 mmHg 73%
    05:00 +20°C° 0 mm 4 mps 706 mmHg 72%
    06:00 +21°C° 0 mm 4 mps 707 mmHg 69%
    07:00 +22°C° 0 mm 4 mps 707 mmHg 66%
    08:00 +24°C° 0 mm 3 mps 707 mmHg 63%
    09:00 +25°C° 0 mm 3 mps 707 mmHg 60%
    10:00 +26°C° 0 mm 3 mps 708 mmHg 56%
    11:00 +27°C° 0 mm 3 mps 708 mmHg 53%
    12:00 +28°C° 0 mm 4 mps 708 mmHg 52%
    13:00 +28°C° 0 mm 4 mps 708 mmHg 51%
    14:00 +29°C° 0 mm 4 mps 708 mmHg 50%
    15:00 +28°C° 0 mm 4 mps 708 mmHg 50%
    16:00 +28°C° 0 mm 4 mps 708 mmHg 51%
    17:00 +28°C° 0 mm 4 mps 708 mmHg 51%
    18:00 +27°C° 0 mm 4 mps 708 mmHg 55%
    19:00 +26°C° 0 mm 4 mps 708 mmHg 59%
    20:00 +25°C° 0 mm 4 mps 708 mmHg 63%
    21:00 +23°C° 0 mm 4 mps 708 mmHg 67%
    22:00 +22°C° 0 mm 4 mps 708 mmHg 70%
    23:00 +21°C° 0 mm 4 mps 708 mmHg 74%

    25 June, Monday

    Time Temperature Precipitation Wind Pressure Humidity
    00:00 +21°C° 0 mm 4 mps 707 mmHg 74%
    01:00 +21°C° 0 mm 4 mps 707 mmHg 75%
    02:00 +21°C° 0 mm 4 mps 707 mmHg 76%
    03:00 +20°C° 0 mm 4 mps 707 mmHg 77%
    04:00 +20°C° 0 mm 4 mps 707 mmHg 78%
    05:00 +20°C° 0 mm 4 mps 707 mmHg 79%
    06:00 +21°C° 0 mm 4 mps 707 mmHg 73%
    07:00 +22°C° 0 mm 4 mps 707 mmHg 68%
    08:00 +24°C° 0 mm 3 mps 707 mmHg 62%
    09:00 +25°C° 0 mm 3 mps 707 mmHg 59%
    10:00 +26°C° 0 mm 3 mps 707 mmHg 55%
    11:00 +27°C° 0 mm 2 mps 707 mmHg 52%
    12:00 +27°C° 0 mm 3 mps 707 mmHg 51%
    13:00 +28°C° 0 mm 4 mps 707 mmHg 50%
    14:00 +28°C° 0 mm 4 mps 707 mmHg 49%
    15:00 +28°C° 0 mm 4 mps 707 mmHg 51%
    16:00 +27°C° 0 mm 4 mps 707 mmHg 52%
    17:00 +27°C° 0 mm 5 mps 707 mmHg 53%
    18:00 +26°C° 0 mm 4 mps 707 mmHg 57%
    19:00 +25°C° 0 mm 3 mps 707 mmHg 62%
    20:00 +24°C° 0 mm 2 mps 707 mmHg 66%
    21:00 +24°C° 0 mm 2 mps 707 mmHg 67%
    22:00 +23°C° 0 mm 2 mps 707 mmHg 69%
    23:00 +23°C° 0 mm 2 mps 707 mmHg 71%
    Show more